Meteo Giornale » Osservazioni meteo Stati Uniti (USA) » Mansfield Lahm
ore: 02:52 - Osservazioni Meteo Mansfield Lahm
Lat. 40° 49' N Lon. 82° 31' W Alt. 395 metri s.l.m.
23 °C
Sereno
Temp. 24 Ore
22 °C
30 °C
Sud
11.1 Km/h
Dew point 21 °C
Umidità 88 %
Visibilità 10 Km
Il sole sorge alle ore 06:57
Il sole tramonta alle ore 20:02
| Data e Ora | Cielo e Fenomeni | T °C | DP °C | Um. % | Pres. hPa | Vis. km | Vento km/h | |
|---|---|---|---|---|---|---|---|---|
| Oggi h: 02:52 | Sereno | 23 | 21 | 88 | 1017 | 10 | S 11.1 | |
| Oggi h: 01:52 | Sereno | 23 | 20 | 83 | 1017 | 10 | S 11.1 | |
| Oggi h: 00:52 | Sereno | 23 | 20 | 83 | 1018 | 10 | S 7.4 | |
| Ieri h: 23:52 | Poco Nuvoloso | 24 | 20 | 78 | 1018 | 10 | S 9.3 | |
| Ieri h: 22:52 | Sereno | 24 | 21 | 83 | 1017 | 10 | S 14.8 | |
| Ieri h: 21:52 | Sereno | 25 | 21 | 78 | 1017 | 10 | S/SO 13 | |
| Ieri h: 20:52 | Molto Nuvoloso | 24 | 21 | 83 | 1018 | 10 | S/SO 13 | |
| Ieri h: 19:52 | Sereno | 26 | 21 | 73 | 1019 | 10 | N 5.5 | |
| Ieri h: 18:52 | Sereno | 27 | 21 | 69 | 1019 | 10 | O 7.4 | |
| Ieri h: 17:52 | Sereno | 28 | 20 | 61 | 1018 | 10 | O/SO 7.4 | |
| Ieri h: 16:52 | Poco Nuvoloso | 28 | 21 | 65 | 1018 | 10 | S/SO 11.1 | |
| Ieri h: 15:52 | Sereno | 28 | 21 | 65 | 1018 | 10 | SO 13 | |
| Ieri h: 14:52 | Sereno | 30 | 21 | 58 | 1019 | 10 | SO 16.7 | |
| Ieri h: 13:52 | Sereno | 29 | 21 | 62 | 1019 | 10 | O 11.1 | |
| Ieri h: 12:52 | Sereno | 30 | 21 | 58 | 1020 | 10 | O/SO 18.5 | |
| Ieri h: 11:52 | Molto Nuvoloso | 28 | 20 | 61 | 1020 | 10 | O/SO 14.8 | |
| Ieri h: 10:52 | Coperto | 27 | 20 | 65 | 1020 | 10 | SO 14.8 | |
| Ieri h: 09:52 | Poco Nuvoloso | 26 | 19 | 65 | 1019 | 10 | S 11.1 | |
| Ieri h: 08:52 | Coperto | 24 | 20 | 78 | 1020 | 10 | SO 11.1 | |
| Ieri h: 07:52 | Coperto | 22 | 20 | 88 | 1020 | 10 | S/SO 9.3 | |
| Ieri h: 06:52 | Coperto | 23 | 19 | 78 | 1019 | 10 | S 7.4 | |
| Ieri h: 05:52 | Molto Nuvoloso | 22 | 19 | 83 | 1019 | 10 | S 7.4 | |
| Ieri h: 04:52 | Poco Nuvoloso | 22 | 19 | 83 | 1019 | 10 | S/SO 13 | |
| Ieri h: 03:52 | Poco Nuvoloso | 22 | 19 | 83 | 1019 | 10 | S/SO 13 | |



